Weather History for KUNI - January, 2012

Change the Weather History Date:

Thursday, January 19, 2012

  Actual Average (KPKB) Record (KPKB)
Temperature  
Mean Temperature 28 °F 31 °F  
Max Temperature 38 °F 40 °F 71 °F (1907)
Min Temperature 19 °F 23 °F -24 °F (1994)
Degree Days  
Heating Degree Days 36 34  
Month to date heating degree days 639  
Cooling Degree Days 0 0  
Month to date cooling degree days 0  
Year to date cooling degree days 0  
Moisture  
Dew Point 20 °F    
Average Humidity 72    
Maximum Humidity 91    
Minimum Humidity 52    
Precipitation  
Precipitation 0.00 in 0.09 in 0.34 in (2000)
Month to date precipitation 1.79  
Year to date precipitation 1.79  
Sea Level Pressure  
Sea Level Pressure 29.99 in    
Wind  
Wind Speed 5 mph (SW)    
Max Wind Speed 14 mph    
Max Gust Speed 22 mph    
Visibility 10 miles    
Events      
T = Trace of Precipitation, MM = Missing Value Source: NWS Daily Summary

Daily Weather History Graph

Daily Weather History Graph

Search for Another Location

Airport or City:

Trip Planner

Search our weather history database for the weather conditions in past years. The results will help you decide how hot, cold, wet, or windy it might be!

Date:

Astronomy

Jan. 19, 2012 Rise Set
Actual Time 7:45 AM EST 5:34 PM EST
Civil Twilight 7:16 AM EST 6:03 PM EST
Nautical Twilight 6:43 AM EST 6:36 PM EST
Astronomical Twilight 6:11 AM EST 7:08 PM EST
Moon 4:19 AM EST (1/19) 2:05 PM EST (1/19)
Length of Visible Light 10h 47m
Length of Day
9h 48m
Waning Crescent, 16% of the Moon is Illuminated
Jan 19
Waning Crescent
Jan 23
New
Jan 30
First Quarter
Feb 7
Full
Feb 14
Last Quarter

Hourly Weather History & Observations

Time (EST) Temp. Windchill Dew Point Humidity Pressure Visibility Wind Dir Wind Speed Gust Speed Precip Events Conditions
12:15 AM 20.1 °F - 16.9 °F 87% 30.13 in 10.0 mi Calm Calm - N/A   Clear
12:35 AM 19.6 °F - 17.2 °F 91% 30.12 in 10.0 mi Calm Calm - N/A   Clear
12:55 AM 19.2 °F - 17.1 °F 91% 30.11 in 10.0 mi Calm Calm - N/A   Clear
1:15 AM 19.4 °F - 17.1 °F 91% 30.11 in 10.0 mi Calm Calm - N/A   Clear
1:35 AM 19.9 °F - 17.6 °F 91% 30.09 in 10.0 mi Calm Calm - N/A   Clear
1:55 AM 19.6 °F - 17.2 °F 91% 30.09 in 10.0 mi Calm Calm - N/A   Clear
2:15 AM 22.3 °F 14.9 °F 18.5 °F 85% 30.07 in 10.0 mi SSE 5.8 mph - N/A   Clear
2:35 AM 22.6 °F 15.3 °F 18.1 °F 83% 30.07 in 10.0 mi South 5.8 mph - N/A   Clear
2:55 AM 22.5 °F - 18.1 °F 83% 30.07 in 10.0 mi Calm Calm - N/A   Clear
3:35 AM 21.0 °F 14.6 °F 17.1 °F 85% 30.05 in 10.0 mi South 4.6 mph - N/A   Clear
3:55 AM 21.4 °F 16.6 °F 17.2 °F 84% 30.05 in 10.0 mi South 3.5 mph - N/A   Clear
4:15 AM 21.4 °F - 17.2 °F 84% 30.05 in 10.0 mi Calm Calm - N/A   Clear
4:35 AM 21.7 °F 13.2 °F 17.2 °F 83% 30.06 in 10.0 mi SSW 6.9 mph - N/A   Clear
4:55 AM 21.2 °F 14.9 °F 17.2 °F 85% 30.06 in 10.0 mi SSW 4.6 mph - N/A   Clear
5:15 AM 20.8 °F 16.0 °F 16.7 °F 84% 30.06 in 10.0 mi SSW 3.5 mph - N/A   Clear
5:35 AM 21.0 °F 13.4 °F 16.5 °F 83% 30.04 in 10.0 mi South 5.8 mph - N/A   Clear
5:55 AM 21.2 °F 14.9 °F 16.5 °F 82% 30.03 in 10.0 mi South 4.6 mph - N/A   Clear
6:15 AM 21.9 °F 14.5 °F 16.3 °F 79% 30.02 in 10.0 mi South 5.8 mph - N/A   Clear
6:35 AM 21.7 °F 15.5 °F 16.2 °F 79% 30.02 in 10.0 mi South 4.6 mph - N/A   Clear
7:15 AM 22.5 °F 16.3 °F 16.7 °F 79% 30.01 in 10.0 mi South 4.6 mph - N/A   Clear
7:35 AM 22.1 °F 15.9 °F 16.7 °F 80% 29.99 in 10.0 mi South 4.6 mph - N/A   Clear
7:55 AM 22.8 °F 18.2 °F 16.9 °F 78% 30.00 in 10.0 mi South 3.5 mph - N/A   Clear
8:15 AM 23.0 °F 17.0 °F 17.2 °F 79% 30.02 in 10.0 mi South 4.6 mph - N/A   Clear
8:35 AM 23.5 °F 16.4 °F 17.6 °F 78% 30.01 in 10.0 mi South 5.8 mph - N/A   Clear
8:55 AM 24.4 °F 17.5 °F 18.5 °F 78% 30.02 in 10.0 mi SSW 5.8 mph - N/A   Clear
9:15 AM 25.2 °F 18.3 °F 19.0 °F 78% 30.00 in 10.0 mi South 5.8 mph - N/A   Clear
9:35 AM 26.4 °F 16.6 °F 19.4 °F 75% 29.99 in 10.0 mi South 10.4 mph - N/A   Clear
9:55 AM 27.7 °F 19.6 °F 20.3 °F 74% 29.99 in 10.0 mi SSW 8.1 mph 16.1 mph N/A   Clear
10:15 AM 28.4 °F 19.7 °F 20.5 °F 72% 29.98 in 10.0 mi South 9.2 mph - N/A   Clear
10:35 AM 28.9 °F 20.4 °F 20.3 °F 70% 29.98 in 10.0 mi SSW 9.2 mph - N/A   Clear
10:55 AM 29.5 °F 21.1 °F 20.3 °F 69% 29.99 in 10.0 mi SW 9.2 mph - N/A   Scattered Clouds
11:15 AM 30.2 °F 22.6 °F 21.0 °F 69% 30.00 in 10.0 mi SW 8.1 mph - N/A   Scattered Clouds
11:35 AM 31.6 °F 25.1 °F 20.1 °F 62% 29.99 in 10.0 mi SW 6.9 mph - N/A   Scattered Clouds
11:55 AM 32.0 °F 24.2 °F 19.2 °F 59% 29.98 in 10.0 mi SSW 9.2 mph - N/A   Mostly Cloudy
12:35 PM 34.5 °F 25.7 °F 20.5 °F 57% 29.95 in 10.0 mi SW 12.7 mph - N/A   Scattered Clouds
12:55 PM 35.6 °F 27.1 °F 20.7 °F 55% 29.95 in 10.0 mi SSW 12.7 mph 17.3 mph N/A   Clear
1:15 PM 35.2 °F 26.6 °F 20.5 °F 55% 29.94 in 10.0 mi SW 12.7 mph 21.9 mph N/A   Clear
1:35 PM 35.2 °F 27.6 °F 20.3 °F 55% 29.93 in 10.0 mi SW 10.4 mph - N/A   Clear
1:55 PM 35.8 °F 28.3 °F 20.5 °F 54% 29.91 in 10.0 mi SW 10.4 mph 17.3 mph N/A   Clear
2:15 PM 36.7 °F 28.9 °F 21.4 °F 54% 29.91 in 10.0 mi SW 11.5 mph 16.1 mph N/A   Clear
2:35 PM 36.7 °F 32.0 °F 21.4 °F 54% 29.88 in 10.0 mi SSW 5.8 mph - N/A   Scattered Clouds
2:55 PM 37.4 °F 32.1 °F 21.4 °F 52% 29.87 in 10.0 mi SW 6.9 mph - N/A   Scattered Clouds
3:35 PM 38.5 °F 32.7 °F 22.3 °F 52% 29.90 in 10.0 mi WSW 8.1 mph - N/A   Scattered Clouds
4:15 PM 38.3 °F 30.1 °F 22.3 °F 53% 29.91 in 10.0 mi WSW 13.8 mph 17.3 mph N/A   Scattered Clouds
4:35 PM 37.8 °F 30.2 °F 22.6 °F 54% 29.90 in 10.0 mi SW 11.5 mph 17.3 mph N/A   Scattered Clouds
4:55 PM 37.8 °F 31.3 °F 22.3 °F 54% 29.90 in 10.0 mi WSW 9.2 mph 19.6 mph N/A   Clear
5:15 PM 37.4 °F 31.4 °F 22.6 °F 55% 29.90 in 10.0 mi SW 8.1 mph - N/A   Clear
5:35 PM 36.9 °F 30.1 °F 23.2 °F 58% 29.91 in 10.0 mi WSW 9.2 mph - N/A   Scattered Clouds
5:55 PM 36.5 °F 31.0 °F 23.7 °F 60% 29.92 in 10.0 mi West 6.9 mph - N/A   Clear
6:15 PM 36.3 °F 31.6 °F 23.9 °F 61% 29.93 in 10.0 mi West 5.8 mph - N/A   Clear
6:35 PM 36.1 °F 31.4 °F 24.3 °F 62% 29.93 in 10.0 mi WNW 5.8 mph - N/A   Clear
6:55 PM 35.8 °F 28.3 °F 25.5 °F 66% 29.95 in 10.0 mi West 10.4 mph 16.1 mph N/A   Clear
7:15 PM 35.8 °F 27.8 °F 25.0 °F 65% 29.96 in 10.0 mi West 11.5 mph 16.1 mph N/A   Mostly Cloudy
7:35 PM 35.1 °F 27.4 °F 25.2 °F 67% 29.97 in 10.0 mi WNW 10.4 mph 16.1 mph N/A   Scattered Clouds
7:55 PM 34.7 °F 26.4 °F 25.2 °F 68% 29.97 in 10.0 mi WNW 11.5 mph - N/A   Clear
8:15 PM 34.2 °F 26.2 °F 25.5 °F 71% 29.98 in 10.0 mi NW 10.4 mph - N/A   Scattered Clouds
8:35 PM 32.5 °F 25.5 °F 26.2 °F 78% 29.99 in 10.0 mi NW 8.1 mph - N/A   Mostly Cloudy
8:55 PM 32.4 °F 24.6 °F 26.1 °F 78% 30.00 in 10.0 mi WNW 9.2 mph - N/A   Overcast
9:15 PM 32.0 °F 24.2 °F 26.1 °F 79% 30.01 in 10.0 mi WNW 9.2 mph - N/A   Mostly Cloudy
9:35 PM 32.0 °F 25.6 °F 26.2 °F 79% 30.02 in 10.0 mi WNW 6.9 mph - N/A   Mostly Cloudy
9:55 PM 31.1 °F 25.4 °F 25.7 °F 80% 30.03 in 10.0 mi NNW 5.8 mph - N/A   Overcast
10:15 PM 30.2 °F 22.6 °F 24.6 °F 80% 30.03 in 10.0 mi North 8.1 mph 16.1 mph N/A   Overcast
10:35 PM 29.1 °F 21.3 °F 23.7 °F 80% 30.04 in 10.0 mi WNW 8.1 mph - N/A Snow Light Snow
10:55 PM 29.1 °F 23.0 °F 23.9 °F 81% 30.05 in 10.0 mi NNW 5.8 mph - N/A   Overcast
11:15 PM 28.9 °F 21.1 °F 23.0 °F 78% 30.07 in 10.0 mi NNW 8.1 mph - N/A   Overcast
11:35 PM 28.4 °F 21.2 °F 22.6 °F 79% 30.07 in 10.0 mi NNW 6.9 mph - N/A   Overcast
11:55 PM 26.6 °F 16.2 °F 21.4 °F 81% 30.09 in 10.0 mi North 11.5 mph - N/A   Overcast